Weather History for Homer, AK

Change the Weather History Date:

Thursday, April 25, 2013

  Actual Average Record
Temperature  
Mean Temperature 38 °F -  
Max Temperature 46 °F 45 °F 60 °F (1944)
Min Temperature 32 °F 30 °F 16 °F (1948)
Degree Days  
Heating Degree Days 26    
Moisture  
Dew Point 16 °F    
Average Humidity 41    
Maximum Humidity 75    
Minimum Humidity 21    
Precipitation  
Precipitation 0.01 in - - ()
Sea Level Pressure  
Sea Level Pressure 29.78 in    
Wind  
Wind Speed 14 mph (NNE)    
Max Wind Speed 23 mph    
Max Gust Speed 38 mph    
Visibility 10 miles    
Events Rain    
Averages and records for this station are not official NWS values.
T = Trace of Precipitation, MM = Missing Value Source: NWS Daily Summary

Daily Weather History Graph

Daily Weather History Graph

Search for Another Location

Airport:

Trip Planner

Search our weather history database for the weather conditions in past years. The results will help you decide how hot, cold, wet, or windy it might be!

Date:

Astronomy

Apr. 25, 2013 Rise Set
Actual Time 6:20 AM AKDT 9:48 PM AKDT
Civil Twilight 5:31 AM AKDT 10:38 PM AKDT
Nautical Twilight 4:20 AM AKDT 11:50 PM AKDT
Astronomical Twilight 2:36 AM AKDT 1:31 AM AKDT
Moon 10:25 PM AKDT (4/25) 6:10 AM AKDT (4/25)
Length of Visible Light 17h 07m
Length of Day
15h 28m
Full, 100% of the Moon is Illuminated
Apr 25
Full
May 2
Last Quarter
May 9
New
May 17
First Quarter
May 24
Full

Hourly Weather History & Observations

Time (AKDT) Temp. Windchill Dew Point Humidity Pressure Visibility Wind Dir Wind Speed Gust Speed Precip Events Conditions
12:53 AM 39.9 °F 35.8 °F 32.0 °F 73% 29.85 in 10.0 mi Variable 5.8 mph - N/A   Overcast
1:23 AM 37.4 °F 30.3 °F 30.2 °F 75% 29.84 in 10.0 mi NE 10.4 mph 25.3 mph 0.01 in Rain Light Rain
1:32 AM 37.4 °F 29.3 °F 30.2 °F 75% 29.85 in 10.0 mi NE 12.7 mph 18.4 mph 0.01 in   Mostly Cloudy
1:40 AM 39.2 °F 29.8 °F 26.6 °F 61% 29.85 in 10.0 mi NE 18.4 mph 34.5 mph 0.01 in   Mostly Cloudy
1:51 AM 37.4 °F 27.8 °F 26.6 °F 65% 29.85 in 10.0 mi NNE 17.3 mph 31.1 mph 0.01 in   Mostly Cloudy
1:53 AM 37.9 °F 27.9 °F 26.1 °F 62% 29.85 in 10.0 mi North 19.6 mph 27.6 mph 0.01 in   Mostly Cloudy
2:53 AM 39.9 °F 31.4 °F 21.0 °F 47% 29.83 in 10.0 mi North 16.1 mph 25.3 mph N/A   Clear
3:53 AM 37.9 °F 32.1 °F 19.9 °F 48% 29.83 in 10.0 mi NE 8.1 mph - N/A   Clear
4:53 AM 35.1 °F 25.9 °F 24.1 °F 64% 29.85 in 10.0 mi East 13.8 mph 23.0 mph N/A   Clear
5:53 AM 32.0 °F 28.7 °F 21.9 °F 66% 29.84 in 10.0 mi NE 3.5 mph - N/A   Clear
6:53 AM 37.9 °F 28.9 °F 15.1 °F 39% 29.82 in 10.0 mi North 16.1 mph - N/A   Clear
7:53 AM 39.0 °F 29.9 °F 12.9 °F 34% 29.80 in 10.0 mi North 17.3 mph 28.8 mph N/A   Clear
8:53 AM 39.9 °F 30.5 °F 12.9 °F 33% 29.78 in 10.0 mi NNE 19.6 mph 27.6 mph N/A   Clear
9:53 AM 42.1 °F 33.6 °F 12.9 °F 31% 29.76 in 10.0 mi North 18.4 mph 32.2 mph N/A   Clear
10:53 AM 43.0 °F 35.7 °F 12.9 °F 30% 29.76 in 10.0 mi North 15.0 mph 28.8 mph N/A   Clear
11:53 AM 44.1 °F 37.4 °F 12.9 °F 28% 29.75 in 10.0 mi NNE 13.8 mph 26.5 mph N/A   Clear
12:53 PM 45.0 °F 38.5 °F 16.0 °F 31% 29.74 in 10.0 mi NNE 13.8 mph 20.7 mph N/A   Clear
1:53 PM 45.0 °F 36.9 °F 14.0 °F 29% 29.72 in 10.0 mi North 20.7 mph 35.7 mph N/A   Clear
2:53 PM 45.0 °F 36.9 °F 12.9 °F 27% 29.72 in 10.0 mi North 20.7 mph 35.7 mph N/A   Clear
3:53 PM 45.0 °F 37.9 °F 15.1 °F 30% 29.71 in 10.0 mi NNE 16.1 mph 32.2 mph N/A   Partly Cloudy
4:53 PM 45.0 °F 36.6 °F 9.0 °F 23% 29.70 in 10.0 mi NNE 21.9 mph 36.8 mph N/A   Partly Cloudy
5:53 PM 44.1 °F 35.2 °F 7.0 °F 22% 29.69 in 10.0 mi NNE 23.0 mph 38.0 mph N/A   Partly Cloudy
6:53 PM 43.0 °F 33.8 °F 5.0 °F 21% 29.69 in 10.0 mi NE 23.0 mph 32.2 mph N/A   Clear
7:53 PM 42.1 °F 34.2 °F 7.0 °F 24% 29.71 in 10.0 mi NNE 16.1 mph 27.6 mph N/A   Clear
8:53 PM 39.0 °F 28.5 °F 7.0 °F 27% 29.71 in 10.0 mi NE 23.0 mph 29.9 mph N/A   Clear
9:53 PM 37.0 °F 26.7 °F 7.0 °F 29% 29.73 in 10.0 mi NNE 19.6 mph 29.9 mph N/A   Clear
10:53 PM 36.0 °F 27.1 °F 6.1 °F 29% 29.74 in 10.0 mi NNE 13.8 mph 27.6 mph N/A   Clear
11:53 PM 34.0 °F 24.6 °F 7.0 °F 32% 29.75 in 10.0 mi NNE 13.8 mph 20.7 mph N/A   Clear